TimeAKDT,TemperatureF,Dew PointF,Humidity,Sea Level PressureIn,VisibilityMPH,Wind Direction,Wind SpeedMPH,Gust SpeedMPH,PrecipitationIn,Events,Conditions,WindDirDegrees,DateUTC
12:01 AM,-0.9,-5.1,83,30.28,10.0,Calm,Calm,-,N/A,,Unknown,0,2013-05-04 08:01:00
1:01 AM,-4.0,-8.0,83,30.28,10.0,Calm,Calm,-,N/A,,Unknown,0,2013-05-04 09:01:00
2:01 AM,-4.0,-8.0,83,30.27,10.0,Calm,Calm,-,N/A,,Unknown,0,2013-05-04 10:01:00
3:01 AM,-6.0,-9.9,83,30.27,10.0,Calm,Calm,-,N/A,,Unknown,0,2013-05-04 11:01:00
3:12 AM,-7.6,-11.2,84,30.27,1.5,Calm,Calm,-,N/A,,Mist,0,2013-05-04 11:12:00
3:14 AM,-7.6,-11.2,84,30.27,0.8,Calm,Calm,-,N/A,,Mist,0,2013-05-04 11:14:00
3:20 AM,-7.6,-11.2,84,30.27,0.2,Calm,Calm,-,N/A,Fog,Light Freezing Fog,0,2013-05-04 11:20:00
3:58 AM,-11.2,-14.8,84,30.27,0.5,East,4.6,-,N/A,Fog,Light Freezing Fog,100,2013-05-04 11:58:00
4:01 AM,-11.0,-15.0,83,30.27,0.5,ESE,4.6,-,N/A,Fog,Light Freezing Fog,120,2013-05-04 12:01:00
4:05 AM,-11.2,-14.8,84,30.26,1.2,ESE,3.5,-,N/A,,Mist,120,2013-05-04 12:05:00
4:07 AM,-11.2,-14.8,84,30.26,3.0,ESE,3.5,-,N/A,,Mist,120,2013-05-04 12:07:00
5:01 AM,-11.9,-16.1,82,30.26,10.0,ESE,4.6,-,N/A,,Unknown,110,2013-05-04 13:01:00
6:01 AM,-11.9,-16.1,82,30.25,9.0,East,4.6,-,N/A,,Unknown,100,2013-05-04 14:01:00
7:01 AM,-9.0,-11.9,87,30.24,10.0,ESE,9.2,-,N/A,,Unknown,110,2013-05-04 15:01:00
8:01 AM,-8.0,-11.9,83,30.23,10.0,ESE,5.8,-,N/A,,Unknown,110,2013-05-04 16:01:00
9:01 AM,-6.0,-9.9,83,30.22,8.0,ESE,5.8,-,N/A,,Unknown,120,2013-05-04 17:01:00
10:01 AM,-2.0,-6.0,83,30.21,10.0,ESE,9.2,-,N/A,,Unknown,110,2013-05-04 18:01:00
11:01 AM,-0.9,-5.1,83,30.21,9.0,ESE,11.5,-,N/A,,Unknown,110,2013-05-04 19:01:00
12:01 PM,1.0,-2.9,83,30.20,10.0,ESE,9.2,-,N/A,,Unknown,120,2013-05-04 20:01:00
1:01 PM,6.1,1.0,80,30.19,9.0,SE,3.5,-,0.00,Snow,Light Snow,140,2013-05-04 21:01:00
2:01 PM,8.1,3.0,80,30.18,9.0,East,15.0,-,0.00,,Unknown,100,2013-05-04 22:01:00
3:01 PM,8.1,3.0,80,30.18,10.0,East,12.7,-,0.00,,Unknown,90,2013-05-04 23:01:00
4:01 PM,9.0,3.0,77,30.17,8.0,East,11.5,-,0.00,Snow,Light Snow,100,2013-05-05 00:01:00
5:01 PM,9.0,3.0,77,30.17,9.0,East,11.5,-,0.00,Snow,Light Snow,90,2013-05-05 01:01:00
6:01 PM,9.0,3.0,77,30.16,9.0,East,10.4,-,0.00,Snow,Light Snow,90,2013-05-05 02:01:00
7:01 PM,9.0,3.0,77,30.16,10.0,East,8.1,-,0.00,,Unknown,80,2013-05-05 03:01:00
8:01 PM,8.1,3.0,80,30.17,10.0,East,8.1,-,0.00,,Unknown,90,2013-05-05 04:01:00
9:01 PM,7.0,3.0,84,30.17,8.0,East,6.9,-,0.00,Snow,Light Snow,100,2013-05-05 05:01:00
10:01 PM,6.1,3.0,87,30.17,9.0,East,4.6,-,0.00,Snow,Light Snow,80,2013-05-05 06:01:00
11:01 PM,6.1,1.9,83,30.18,9.0,ENE,4.6,-,0.00,Snow,Light Snow,70,2013-05-05 07:01:00